Lid_Strength_Index
2 2 2 2 2 2 2 2 1 1 1 2 1 1 1 1 1 1 1 2 2 2
1 2 2 2 2 2 2 2 1 2 2 2 1 1 1 2 1 1 1 1 1 1
2 2 3 3 3 3 2 2 2 3 2 2 2 1 1 1 1 1 1 1 2 2
3 3 3 3 3 3 3 2 3 2 2 3 3 3 4 4 4 4 4 3 3 3
3 4 5 6 5 5 6 6 5 5 4 5 4 5 5 6 5 6 5 5 4 3
5 6 6 6 6 6 7 7 6 6 5 5 5 6 6 6 6 7 7 6 5 5
5 7 7 7 7 6 6 6 5 5 6 7 7 7 7 7 8 8 7 6 6 4
8 7 7 6 6 6 5 6 5 5 8 8 8 8 9 9 9 8 8 7 4 4
6 6 7 6 6 6 6 7 7 7 9 10 9 9 9 8 9 7 6 6 6 5
6 6 7 6 6 7 8 8 8 9 10 11 11 10 10 8 7 7 7 6 6 5
7 7 7 7 8 8 8 8 8 9 10 11 11 10 10 9 9 8 8 8 6 8
8 8 8 8 8 8 8 9 9 9 10 11 12 10 10 10 10 10 9 8 7 8
8 8 8 8 9 9 9 9 9 9 9 8 11 10 10 10 10 12 10 8 8 9
7 7 8 9 9 9 10 9 9 9 9 9 11 11 10 10 11 12 11 9 9 8